owner,sensor,date,latitude,longitude,air_pressure(mBar),qcFlag 
LOOP,urn:ioos:station:wmo:lopl1:1,2018-12-01T00:47:00Z,28.8850,-90.0250,1011.1,1111122 
LOOP,urn:ioos:station:wmo:lopl1:1,2018-12-01T01:52:00Z,28.8850,-90.0250,1010.1,1111122 
LOOP,urn:ioos:station:wmo:lopl1:1,2018-12-01T02:52:00Z,28.8850,-90.0250,1010.1,1111122 
LOOP,urn:ioos:station:wmo:lopl1:1,2018-12-01T03:52:00Z,28.8850,-90.0250,1010.1,1111122 
LOOP,urn:ioos:station:wmo:lopl1:1,2018-12-01T04:52:00Z,28.8850,-90.0250,1009.1,1111122 
LOOP,urn:ioos:station:wmo:lopl1:1,2018-12-01T05:52:00Z,28.8850,-90.0250,1009.1,1111122 
LOOP,urn:ioos:station:wmo:lopl1:1,2018-12-01T06:52:00Z,28.8850,-90.0250,1008.1,1111122 
LOOP,urn:ioos:station:wmo:lopl1:1,2018-12-01T07:52:00Z,28.8850,-90.0250,1007.1,1111122 
LOOP,urn:ioos:station:wmo:lopl1:1,2018-12-01T08:52:00Z,28.8850,-90.0250,1007.1,1111122 
LOOP,urn:ioos:station:wmo:lopl1:1,2018-12-01T09:52:00Z,28.8850,-90.0250,1006.1,1111122 
LOOP,urn:ioos:station:wmo:lopl1:1,2018-12-01T10:57:00Z,28.8850,-90.0250,1006.1,1111122 
LOOP,urn:ioos:station:wmo:lopl1:1,2018-12-01T11:57:00Z,28.8850,-90.0250,1007.1,1111122 
LOOP,urn:ioos:station:wmo:lopl1:1,2018-12-01T12:57:00Z,28.8850,-90.0250,1007.1,1111122 
LOOP,urn:ioos:station:wmo:lopl1:1,2018-12-01T13:57:00Z,28.8850,-90.0250,1007.1,11111222 
LOOP,urn:ioos:station:wmo:lopl1:1,2018-12-01T14:12:00Z,28.8850,-90.0250,1008.1,1111122 
LOOP,urn:ioos:station:wmo:lopl1:1,2018-12-01T15:12:00Z,28.8850,-90.0250,1008.1,1111122 
LOOP,urn:ioos:station:wmo:lopl1:1,2018-12-01T16:12:00Z,28.8850,-90.0250,1008.1,1111122 
LOOP,urn:ioos:station:wmo:lopl1:1,2018-12-01T17:12:00Z,28.8850,-90.0250,1007.1,1111122 
LOOP,urn:ioos:station:wmo:lopl1:1,2018-12-01T18:12:00Z,28.8850,-90.0250,1006.1,1111122 
LOOP,urn:ioos:station:wmo:lopl1:1,2018-12-01T19:12:00Z,28.8850,-90.0250,1006.1,1111122 
LOOP,urn:ioos:station:wmo:lopl1:1,2018-12-01T20:12:00Z,28.8850,-90.0250,1005.1,1111122 
LOOP,urn:ioos:station:wmo:lopl1:1,2018-12-01T21:17:00Z,28.8850,-90.0250,1005.1,1111122 
LOOP,urn:ioos:station:wmo:lopl1:1,2018-12-01T22:17:00Z,28.8850,-90.0250,1005.1,1111122 
LOOP,urn:ioos:station:wmo:lopl1:1,2018-12-01T23:17:00Z,28.8850,-90.0250,1006.1,1111122 
LOOP,urn:ioos:station:wmo:lopl1:1,2018-12-02T00:17:00Z,28.8850,-90.0250,1006.1,1111122 
LOOP,urn:ioos:station:wmo:lopl1:1,2018-12-02T01:17:00Z,28.8850,-90.0250,1007.1,1111122 
LOOP,urn:ioos:station:wmo:lopl1:1,2018-12-02T02:17:00Z,28.8850,-90.0250,1008.1,1111122 
LOOP,urn:ioos:station:wmo:lopl1:1,2018-12-02T03:17:00Z,28.8850,-90.0250,1008.1,1111122 
LOOP,urn:ioos:station:wmo:lopl1:1,2018-12-02T04:17:00Z,28.8850,-90.0250,1008.1,1111122 
LOOP,urn:ioos:station:wmo:lopl1:1,2018-12-02T05:17:00Z,28.8850,-90.0250,1008.1,1111122 
LOOP,urn:ioos:station:wmo:lopl1:1,2018-12-02T06:22:00Z,28.8850,-90.0250,1008.1,1111122 
LOOP,urn:ioos:station:wmo:lopl1:1,2018-12-02T07:22:00Z,28.8850,-90.0250,1008.1,1111122 
LOOP,urn:ioos:station:wmo:lopl1:1,2018-12-02T08:22:00Z,28.8850,-90.0250,1008.1,1111122 
LOOP,urn:ioos:station:wmo:lopl1:1,2018-12-02T09:22:00Z,28.8850,-90.0250,1007.1,1111122 
LOOP,urn:ioos:station:wmo:lopl1:1,2018-12-02T10:22:00Z,28.8850,-90.0250,1008.1,1111122 
LOOP,urn:ioos:station:wmo:lopl1:1,2018-12-02T11:22:00Z,28.8850,-90.0250,1008.1,1111122 
LOOP,urn:ioos:station:wmo:lopl1:1,2018-12-02T12:22:00Z,28.8850,-90.0250,1009.1,1111122 
LOOP,urn:ioos:station:wmo:lopl1:1,2018-12-02T13:22:00Z,28.8850,-90.0250,1010.1,1111122 
LOOP,urn:ioos:station:wmo:lopl1:1,2018-12-02T14:22:00Z,28.8850,-90.0250,1011.1,1111122 
LOOP,urn:ioos:station:wmo:lopl1:1,2018-12-02T15:22:00Z,28.8850,-90.0250,1011.1,1111122 
LOOP,urn:ioos:station:wmo:lopl1:1,2018-12-02T16:22:00Z,28.8850,-90.0250,1011.1,1111122 
LOOP,urn:ioos:station:wmo:lopl1:1,2018-12-02T17:27:00Z,28.8850,-90.0250,1011.1,1111122 
LOOP,urn:ioos:station:wmo:lopl1:1,2018-12-02T18:27:00Z,28.8850,-90.0250,1010.1,1111122 
LOOP,urn:ioos:station:wmo:lopl1:1,2018-12-02T19:27:00Z,28.8850,-90.0250,1009.1,1111122 
LOOP,urn:ioos:station:wmo:lopl1:1,2018-12-02T20:27:00Z,28.8850,-90.0250,1009.1,1111122 
LOOP,urn:ioos:station:wmo:lopl1:1,2018-12-02T21:27:00Z,28.8850,-90.0250,1009.1,1111122 
LOOP,urn:ioos:station:wmo:lopl1:1,2018-12-02T22:27:00Z,28.8850,-90.0250,1009.1,1111122 
LOOP,urn:ioos:station:wmo:lopl1:1,2018-12-02T23:27:00Z,28.8850,-90.0250,1010.1,1111122 
LOOP,urn:ioos:station:wmo:lopl1:1,2018-12-03T00:27:00Z,28.8850,-90.0250,1010.1,1111122 
LOOP,urn:ioos:station:wmo:lopl1:1,2018-12-03T01:27:00Z,28.8850,-90.0250,1011.1,1111122 
LOOP,urn:ioos:station:wmo:lopl1:1,2018-12-03T02:27:00Z,28.8850,-90.0250,1011.1,1111122 
LOOP,urn:ioos:station:wmo:lopl1:1,2018-12-03T03:27:00Z,28.8850,-90.0250,1011.1,1111122 
LOOP,urn:ioos:station:wmo:lopl1:1,2018-12-03T04:32:00Z,28.8850,-90.0250,1011.1,1111122 
LOOP,urn:ioos:station:wmo:lopl1:1,2018-12-03T05:32:00Z,28.8850,-90.0250,1011.1,1111122 
LOOP,urn:ioos:station:wmo:lopl1:1,2018-12-03T06:32:00Z,28.8850,-90.0250,1011.1,1111122 
LOOP,urn:ioos:station:wmo:lopl1:1,2018-12-03T07:32:00Z,28.8850,-90.0250,1011.1,1111122 
LOOP,urn:ioos:station:wmo:lopl1:1,2018-12-03T08:32:00Z,28.8850,-90.0250,1011.1,1111122 
LOOP,urn:ioos:station:wmo:lopl1:1,2018-12-03T09:32:00Z,28.8850,-90.0250,1011.1,1111122 
LOOP,urn:ioos:station:wmo:lopl1:1,2018-12-03T10:32:00Z,28.8850,-90.0250,1011.1,1111122 
LOOP,urn:ioos:station:wmo:lopl1:1,2018-12-03T11:32:00Z,28.8850,-90.0250,1011.1,1111122 
LOOP,urn:ioos:station:wmo:lopl1:1,2018-12-03T12:32:00Z,28.8850,-90.0250,1012.1,1111122 
LOOP,urn:ioos:station:wmo:lopl1:1,2018-12-03T13:32:00Z,28.8850,-90.0250,1013.1,1111122 
LOOP,urn:ioos:station:wmo:lopl1:1,2018-12-03T14:32:00Z,28.8850,-90.0250,1014.1,1111122 
LOOP,urn:ioos:station:wmo:lopl1:1,2018-12-03T15:32:00Z,28.8850,-90.0250,1015.1,1111122 
LOOP,urn:ioos:station:wmo:lopl1:1,2018-12-03T16:37:00Z,28.8850,-90.0250,1015.1,1111122 
LOOP,urn:ioos:station:wmo:lopl1:1,2018-12-03T17:37:00Z,28.8850,-90.0250,1015.1,1111122 
LOOP,urn:ioos:station:wmo:lopl1:1,2018-12-03T18:37:00Z,28.8850,-90.0250,1015.1,1111122 
LOOP,urn:ioos:station:wmo:lopl1:1,2018-12-03T19:37:00Z,28.8850,-90.0250,1015.1,1111122 
LOOP,urn:ioos:station:wmo:lopl1:1,2018-12-03T20:37:00Z,28.8850,-90.0250,1015.1,1111122 
LOOP,urn:ioos:station:wmo:lopl1:1,2018-12-03T21:37:00Z,28.8850,-90.0250,1015.1,1111122 
LOOP,urn:ioos:station:wmo:lopl1:1,2018-12-03T22:37:00Z,28.8850,-90.0250,1016.1,1111122 
LOOP,urn:ioos:station:wmo:lopl1:1,2018-12-03T23:37:00Z,28.8850,-90.0250,1016.1,1111122 
LOOP,urn:ioos:station:wmo:lopl1:1,2018-12-04T00:37:00Z,28.8850,-90.0250,1017.1,1111122 
LOOP,urn:ioos:station:wmo:lopl1:1,2018-12-04T01:37:00Z,28.8850,-90.0250,1018.1,1111122 
LOOP,urn:ioos:station:wmo:lopl1:1,2018-12-04T02:42:00Z,28.8850,-90.0250,1018.1,1111122 
LOOP,urn:ioos:station:wmo:lopl1:1,2018-12-04T03:42:00Z,28.8850,-90.0250,1019.1,1111122 
LOOP,urn:ioos:station:wmo:lopl1:1,2018-12-04T04:42:00Z,28.8850,-90.0250,1019.1,1111122 
LOOP,urn:ioos:station:wmo:lopl1:1,2018-12-04T05:42:00Z,28.8850,-90.0250,1019.1,1111122 
LOOP,urn:ioos:station:wmo:lopl1:1,2018-12-04T06:42:00Z,28.8850,-90.0250,1019.1,1111122 
LOOP,urn:ioos:station:wmo:lopl1:1,2018-12-04T07:42:00Z,28.8850,-90.0250,1019.1,1111122 
LOOP,urn:ioos:station:wmo:lopl1:1,2018-12-04T08:42:00Z,28.8850,-90.0250,1019.1,1111122 
LOOP,urn:ioos:station:wmo:lopl1:1,2018-12-04T09:42:00Z,28.8850,-90.0250,1020.1,1111122 
LOOP,urn:ioos:station:wmo:lopl1:1,2018-12-04T10:42:00Z,28.8850,-90.0250,1021.1,1111122 
LOOP,urn:ioos:station:wmo:lopl1:1,2018-12-04T11:42:00Z,28.8850,-90.0250,1021.1,1111122 
LOOP,urn:ioos:station:wmo:lopl1:1,2018-12-04T12:47:00Z,28.8850,-90.0250,1022.1,1111122 
LOOP,urn:ioos:station:wmo:lopl1:1,2018-12-04T13:47:00Z,28.8850,-90.0250,1022.1,1111122 
LOOP,urn:ioos:station:wmo:lopl1:1,2018-12-04T14:52:00Z,28.8850,-90.0250,1023.1,1111122 
LOOP,urn:ioos:station:wmo:lopl1:1,2018-12-04T15:52:00Z,28.8850,-90.0250,1024.1,1111122 
LOOP,urn:ioos:station:wmo:lopl1:1,2018-12-04T16:52:00Z,28.8850,-90.0250,1023.1,1111122 
LOOP,urn:ioos:station:wmo:lopl1:1,2018-12-04T17:52:00Z,28.8850,-90.0250,1023.1,1111122 
LOOP,urn:ioos:station:wmo:lopl1:1,2018-12-04T18:52:00Z,28.8850,-90.0250,1022.1,1111122 
LOOP,urn:ioos:station:wmo:lopl1:1,2018-12-04T19:52:00Z,28.8850,-90.0250,1022.1,1111122 
LOOP,urn:ioos:station:wmo:lopl1:1,2018-12-04T20:52:00Z,28.8850,-90.0250,1022.1,1111122 
LOOP,urn:ioos:station:wmo:lopl1:1,2018-12-04T21:52:00Z,28.8850,-90.0250,1023.1,11111222 
LOOP,urn:ioos:station:wmo:lopl1:1,2018-12-04T22:52:00Z,28.8850,-90.0250,1023.1,11111222 
LOOP,urn:ioos:station:wmo:lopl1:1,2018-12-04T23:52:00Z,28.8850,-90.0250,1023.1,11111222 
LOOP,urn:ioos:station:wmo:lopl1:1,2018-12-05T00:52:00Z,28.8850,-90.0250,1024.1,11111222 
LOOP,urn:ioos:station:wmo:lopl1:1,2018-12-05T01:52:00Z,28.8850,-90.0250,1024.1,11111222 
LOOP,urn:ioos:station:wmo:lopl1:1,2018-12-05T02:52:00Z,28.8850,-90.0250,1025.1,11111222 
LOOP,urn:ioos:station:wmo:lopl1:1,2018-12-05T03:52:00Z,28.8850,-90.0250,1025.1,11111222 
LOOP,urn:ioos:station:wmo:lopl1:1,2018-12-05T04:52:00Z,28.8850,-90.0250,1025.1,11111222 
LOOP,urn:ioos:station:wmo:lopl1:1,2018-12-05T05:52:00Z,28.8850,-90.0250,1025.1,11111222 
LOOP,urn:ioos:station:wmo:lopl1:1,2018-12-05T06:52:00Z,28.8850,-90.0250,1025.1,11111222 
LOOP,urn:ioos:station:wmo:lopl1:1,2018-12-05T07:52:00Z,28.8850,-90.0250,1025.1,11111222 
LOOP,urn:ioos:station:wmo:lopl1:1,2018-12-05T08:52:00Z,28.8850,-90.0250,1025.1,11111222 
LOOP,urn:ioos:station:wmo:lopl1:1,2018-12-05T09:57:00Z,28.8850,-90.0250,1026.1,11111222 
LOOP,urn:ioos:station:wmo:lopl1:1,2018-12-05T10:57:00Z,28.8850,-90.0250,1027.1,11111222 
LOOP,urn:ioos:station:wmo:lopl1:1,2018-12-05T11:57:00Z,28.8850,-90.0250,1028.1,11111222 
LOOP,urn:ioos:station:wmo:lopl1:1,2018-12-05T12:57:00Z,28.8850,-90.0250,1028.1,11111222 
LOOP,urn:ioos:station:wmo:lopl1:1,2018-12-05T13:57:00Z,28.8850,-90.0250,1029.1,11111222 
LOOP,urn:ioos:station:wmo:lopl1:1,2018-12-05T14:57:00Z,28.8850,-90.0250,1030.1,11111222 
LOOP,urn:ioos:station:wmo:lopl1:1,2018-12-05T15:57:00Z,28.8850,-90.0250,1030.1,11111222 
LOOP,urn:ioos:station:wmo:lopl1:1,2018-12-05T16:57:00Z,28.8850,-90.0250,1029.1,11111222 
LOOP,urn:ioos:station:wmo:lopl1:1,2018-12-05T18:02:00Z,28.8850,-90.0250,1029.1,11111222 
LOOP,urn:ioos:station:wmo:lopl1:1,2018-12-05T19:02:00Z,28.8850,-90.0250,1028.1,11111222 
LOOP,urn:ioos:station:wmo:lopl1:1,2018-12-05T20:02:00Z,28.8850,-90.0250,1028.1,11111222 
LOOP,urn:ioos:station:wmo:lopl1:1,2018-12-05T21:02:00Z,28.8850,-90.0250,1028.1,11111222 
LOOP,urn:ioos:station:wmo:lopl1:1,2018-12-05T22:02:00Z,28.8850,-90.0250,1028.1,11111222 
LOOP,urn:ioos:station:wmo:lopl1:1,2018-12-05T23:02:00Z,28.8850,-90.0250,1028.1,11111222 
LOOP,urn:ioos:station:wmo:lopl1:1,2018-12-06T00:02:00Z,28.8850,-90.0250,1028.1,11111222 
LOOP,urn:ioos:station:wmo:lopl1:1,2018-12-06T01:02:00Z,28.8850,-90.0250,1028.1,11111222 
LOOP,urn:ioos:station:wmo:lopl1:1,2018-12-06T02:02:00Z,28.8850,-90.0250,1028.1,11111222 
LOOP,urn:ioos:station:wmo:lopl1:1,2018-12-06T03:02:00Z,28.8850,-90.0250,1029.1,11111222 
LOOP,urn:ioos:station:wmo:lopl1:1,2018-12-06T04:02:00Z,28.8850,-90.0250,1028.1,11111222 
LOOP,urn:ioos:station:wmo:lopl1:1,2018-12-06T05:02:00Z,28.8850,-90.0250,1028.1,11111222 
LOOP,urn:ioos:station:wmo:lopl1:1,2018-12-06T06:02:00Z,28.8850,-90.0250,1028.1,11111222 
LOOP,urn:ioos:station:wmo:lopl1:1,2018-12-06T07:07:00Z,28.8850,-90.0250,1028.1,11111222 
LOOP,urn:ioos:station:wmo:lopl1:1,2018-12-06T08:07:00Z,28.8850,-90.0250,1027.1,11111222 
LOOP,urn:ioos:station:wmo:lopl1:1,2018-12-06T09:07:00Z,28.8850,-90.0250,1027.1,11111222 
LOOP,urn:ioos:station:wmo:lopl1:1,2018-12-06T10:07:00Z,28.8850,-90.0250,1027.1,11111222 
LOOP,urn:ioos:station:wmo:lopl1:1,2018-12-06T11:07:00Z,28.8850,-90.0250,1027.1,11111222 
LOOP,urn:ioos:station:wmo:lopl1:1,2018-12-06T12:07:00Z,28.8850,-90.0250,1027.1,11111222 
LOOP,urn:ioos:station:wmo:lopl1:1,2018-12-06T13:07:00Z,28.8850,-90.0250,1028.1,11111222 
LOOP,urn:ioos:station:wmo:lopl1:1,2018-12-06T14:07:00Z,28.8850,-90.0250,1028.1,11111222 
LOOP,urn:ioos:station:wmo:lopl1:1,2018-12-06T15:07:00Z,28.8850,-90.0250,1028.1,11111222 
LOOP,urn:ioos:station:wmo:lopl1:1,2018-12-06T16:07:00Z,28.8850,-90.0250,1028.1,11111222 
LOOP,urn:ioos:station:wmo:lopl1:1,2018-12-06T17:07:00Z,28.8850,-90.0250,1028.1,11111222 
LOOP,urn:ioos:station:wmo:lopl1:1,2018-12-06T18:12:00Z,28.8850,-90.0250,1027.1,11111222 
LOOP,urn:ioos:station:wmo:lopl1:1,2018-12-06T19:12:00Z,28.8850,-90.0250,1027.1,11111222 
LOOP,urn:ioos:station:wmo:lopl1:1,2018-12-06T20:12:00Z,28.8850,-90.0250,1026.1,11111222 
LOOP,urn:ioos:station:wmo:lopl1:1,2018-12-06T21:12:00Z,28.8850,-90.0250,1026.1,11111222 
LOOP,urn:ioos:station:wmo:lopl1:1,2018-12-06T22:12:00Z,28.8850,-90.0250,1027.1,11111222 
LOOP,urn:ioos:station:wmo:lopl1:1,2018-12-06T23:12:00Z,28.8850,-90.0250,1026.1,11111222 
LOOP,urn:ioos:station:wmo:lopl1:1,2018-12-07T00:12:00Z,28.8850,-90.0250,1027.1,11111222 
LOOP,urn:ioos:station:wmo:lopl1:1,2018-12-07T01:12:00Z,28.8850,-90.0250,1027.1,11111222 
LOOP,urn:ioos:station:wmo:lopl1:1,2018-12-07T02:12:00Z,28.8850,-90.0250,1027.1,11111222 
LOOP,urn:ioos:station:wmo:lopl1:1,2018-12-07T03:12:00Z,28.8850,-90.0250,1027.1,11111222 
LOOP,urn:ioos:station:wmo:lopl1:1,2018-12-07T04:12:00Z,28.8850,-90.0250,1026.1,11111222 
LOOP,urn:ioos:station:wmo:lopl1:1,2018-12-07T05:12:00Z,28.8850,-90.0250,1026.1,11111222 
LOOP,urn:ioos:station:wmo:lopl1:1,2018-12-07T06:17:00Z,28.8850,-90.0250,1026.1,11111222 
LOOP,urn:ioos:station:wmo:lopl1:1,2018-12-07T07:17:00Z,28.8850,-90.0250,1026.1,11111222 
LOOP,urn:ioos:station:wmo:lopl1:1,2018-12-07T08:17:00Z,28.8850,-90.0250,1026.1,11111222 
LOOP,urn:ioos:station:wmo:lopl1:1,2018-12-07T09:17:00Z,28.8850,-90.0250,1025.1,11111222 
LOOP,urn:ioos:station:wmo:lopl1:1,2018-12-07T10:17:00Z,28.8850,-90.0250,1025.1,11111222 
LOOP,urn:ioos:station:wmo:lopl1:1,2018-12-07T11:17:00Z,28.8850,-90.0250,1026.1,11111222 
LOOP,urn:ioos:station:wmo:lopl1:1,2018-12-07T12:17:00Z,28.8850,-90.0250,1026.1,11111222 
LOOP,urn:ioos:station:wmo:lopl1:1,2018-12-07T13:17:00Z,28.8850,-90.0250,1027.1,11111222 
LOOP,urn:ioos:station:wmo:lopl1:1,2018-12-07T14:17:00Z,28.8850,-90.0250,1027.1,11111222 
LOOP,urn:ioos:station:wmo:lopl1:1,2018-12-07T15:17:00Z,28.8850,-90.0250,1027.1,11111222 
LOOP,urn:ioos:station:wmo:lopl1:1,2018-12-07T16:22:00Z,28.8850,-90.0250,1027.1,11111222 
LOOP,urn:ioos:station:wmo:lopl1:1,2018-12-07T17:22:00Z,28.8850,-90.0250,1026.1,11111222 
LOOP,urn:ioos:station:wmo:lopl1:1,2018-12-07T18:22:00Z,28.8850,-90.0250,1025.1,11111222 
LOOP,urn:ioos:station:wmo:lopl1:1,2018-12-07T19:27:00Z,28.8850,-90.0250,1024.1,11111222 
LOOP,urn:ioos:station:wmo:lopl1:1,2018-12-07T20:27:00Z,28.8850,-90.0250,1023.1,1111122 
LOOP,urn:ioos:station:wmo:lopl1:1,2018-12-07T21:27:00Z,28.8850,-90.0250,1023.1,1111122 
LOOP,urn:ioos:station:wmo:lopl1:1,2018-12-07T22:27:00Z,28.8850,-90.0250,1023.1,1111122 
LOOP,urn:ioos:station:wmo:lopl1:1,2018-12-07T23:27:00Z,28.8850,-90.0250,1023.1,1111122 
LOOP,urn:ioos:station:wmo:lopl1:1,2018-12-08T00:27:00Z,28.8850,-90.0250,1023.1,1111122 
LOOP,urn:ioos:station:wmo:lopl1:1,2018-12-08T01:27:00Z,28.8850,-90.0250,1023.1,1111122 
LOOP,urn:ioos:station:wmo:lopl1:1,2018-12-08T02:27:00Z,28.8850,-90.0250,1023.1,1111122 
LOOP,urn:ioos:station:wmo:lopl1:1,2018-12-08T03:27:00Z,28.8850,-90.0250,1022.1,1111122 
LOOP,urn:ioos:station:wmo:lopl1:1,2018-12-08T04:27:00Z,28.8850,-90.0250,1022.1,1111122 
LOOP,urn:ioos:station:wmo:lopl1:1,2018-12-08T05:27:00Z,28.8850,-90.0250,1021.1,1111122 
LOOP,urn:ioos:station:wmo:lopl1:1,2018-12-08T06:27:00Z,28.8850,-90.0250,1021.1,1111122 
LOOP,urn:ioos:station:wmo:lopl1:1,2018-12-08T07:27:00Z,28.8850,-90.0250,1020.1,1111122 
LOOP,urn:ioos:station:wmo:lopl1:1,2018-12-08T08:27:00Z,28.8850,-90.0250,1019.1,1111122 
LOOP,urn:ioos:station:wmo:lopl1:1,2018-12-08T09:27:00Z,28.8850,-90.0250,1019.1,1111122 
LOOP,urn:ioos:station:wmo:lopl1:1,2018-12-08T10:27:00Z,28.8850,-90.0250,1018.1,1111122 
LOOP,urn:ioos:station:wmo:lopl1:1,2018-12-08T11:32:00Z,28.8850,-90.0250,1017.1,1111122 
LOOP,urn:ioos:station:wmo:lopl1:1,2018-12-08T12:32:00Z,28.8850,-90.0250,1017.1,1111122 
LOOP,urn:ioos:station:wmo:lopl1:1,2018-12-08T13:32:00Z,28.8850,-90.0250,1017.1,1111122 
LOOP,urn:ioos:station:wmo:lopl1:1,2018-12-08T14:32:00Z,28.8850,-90.0250,1017.1,11111222 
LOOP,urn:ioos:station:wmo:lopl1:1,2018-12-08T15:32:00Z,28.8850,-90.0250,1017.1,1111122 
LOOP,urn:ioos:station:wmo:lopl1:1,2018-12-08T16:32:00Z,28.8850,-90.0250,1016.1,1111122 
LOOP,urn:ioos:station:wmo:lopl1:1,2018-12-08T17:32:00Z,28.8850,-90.0250,1014.1,1111122 
LOOP,urn:ioos:station:wmo:lopl1:1,2018-12-08T18:32:00Z,28.8850,-90.0250,1012.1,1111122 
LOOP,urn:ioos:station:wmo:lopl1:1,2018-12-08T19:32:00Z,28.8850,-90.0250,1012.1,1111122 
LOOP,urn:ioos:station:wmo:lopl1:1,2018-12-08T20:32:00Z,28.8850,-90.0250,1012.1,1111122 
LOOP,urn:ioos:station:wmo:lopl1:1,2018-12-08T21:32:00Z,28.8850,-90.0250,1012.1,1111122 
LOOP,urn:ioos:station:wmo:lopl1:1,2018-12-08T22:32:00Z,28.8850,-90.0250,1013.1,1111122 
LOOP,urn:ioos:station:wmo:lopl1:1,2018-12-08T23:32:00Z,28.8850,-90.0250,1013.1,1111122 
LOOP,urn:ioos:station:wmo:lopl1:1,2018-12-09T00:37:00Z,28.8850,-90.0250,1014.1,1111122 
LOOP,urn:ioos:station:wmo:lopl1:1,2018-12-09T01:37:00Z,28.8850,-90.0250,1014.1,1111122 
LOOP,urn:ioos:station:wmo:lopl1:1,2018-12-09T02:37:00Z,28.8850,-90.0250,1014.1,1111122 
LOOP,urn:ioos:station:wmo:lopl1:1,2018-12-09T03:37:00Z,28.8850,-90.0250,1016.1,1111122 
LOOP,urn:ioos:station:wmo:lopl1:1,2018-12-09T04:37:00Z,28.8850,-90.0250,1016.1,1111122 
LOOP,urn:ioos:station:wmo:lopl1:1,2018-12-09T05:37:00Z,28.8850,-90.0250,1016.1,1111122 
LOOP,urn:ioos:station:wmo:lopl1:1,2018-12-09T06:37:00Z,28.8850,-90.0250,1016.1,1111122 
LOOP,urn:ioos:station:wmo:lopl1:1,2018-12-09T07:37:00Z,28.8850,-90.0250,1016.1,1111122 
LOOP,urn:ioos:station:wmo:lopl1:1,2018-12-09T08:37:00Z,28.8850,-90.0250,1016.1,1111122 
LOOP,urn:ioos:station:wmo:lopl1:1,2018-12-09T09:37:00Z,28.8850,-90.0250,1016.1,1111122 
LOOP,urn:ioos:station:wmo:lopl1:1,2018-12-09T10:37:00Z,28.8850,-90.0250,1016.1,1111122 
LOOP,urn:ioos:station:wmo:lopl1:1,2018-12-09T11:37:00Z,28.8850,-90.0250,1017.1,1111122 
LOOP,urn:ioos:station:wmo:lopl1:1,2018-12-09T12:37:00Z,28.8850,-90.0250,1018.1,1111122 
LOOP,urn:ioos:station:wmo:lopl1:1,2018-12-09T13:38:00Z,28.8850,-90.0250,1018.1,1111122 
LOOP,urn:ioos:station:wmo:lopl1:1,2018-12-09T14:43:00Z,28.8850,-90.0250,1019.1,1111122 
LOOP,urn:ioos:station:wmo:lopl1:1,2018-12-09T15:43:00Z,28.8850,-90.0250,1020.1,1111122 
LOOP,urn:ioos:station:wmo:lopl1:1,2018-12-09T16:43:00Z,28.8850,-90.0250,1019.1,1111122 
LOOP,urn:ioos:station:wmo:lopl1:1,2018-12-09T17:43:00Z,28.8850,-90.0250,1019.1,1111122 
LOOP,urn:ioos:station:wmo:lopl1:1,2018-12-09T18:43:00Z,28.8850,-90.0250,1019.1,1111122 
LOOP,urn:ioos:station:wmo:lopl1:1,2018-12-09T19:43:00Z,28.8850,-90.0250,1019.1,1111122 
LOOP,urn:ioos:station:wmo:lopl1:1,2018-12-09T20:43:00Z,28.8850,-90.0250,1019.1,1111122 
LOOP,urn:ioos:station:wmo:lopl1:1,2018-12-09T21:43:00Z,28.8850,-90.0250,1019.1,1111122 
LOOP,urn:ioos:station:wmo:lopl1:1,2018-12-09T22:43:00Z,28.8850,-90.0250,1020.1,1111122 
LOOP,urn:ioos:station:wmo:lopl1:1,2018-12-09T23:43:00Z,28.8850,-90.0250,1020.1,1111122 
LOOP,urn:ioos:station:wmo:lopl1:1,2018-12-10T00:43:00Z,28.8850,-90.0250,1021.1,1111122 
LOOP,urn:ioos:station:wmo:lopl1:1,2018-12-10T01:43:00Z,28.8850,-90.0250,1022.1,1111122 
LOOP,urn:ioos:station:wmo:lopl1:1,2018-12-10T02:48:00Z,28.8850,-90.0250,1022.1,1111122 
LOOP,urn:ioos:station:wmo:lopl1:1,2018-12-10T03:48:00Z,28.8850,-90.0250,1023.1,1111122 
LOOP,urn:ioos:station:wmo:lopl1:1,2018-12-10T04:48:00Z,28.8850,-90.0250,1023.1,1111122 
LOOP,urn:ioos:station:wmo:lopl1:1,2018-12-10T05:48:00Z,28.8850,-90.0250,1023.1,1111122 
LOOP,urn:ioos:station:wmo:lopl1:1,2018-12-10T06:48:00Z,28.8850,-90.0250,1023.1,1111122 
LOOP,urn:ioos:station:wmo:lopl1:1,2018-12-10T07:48:00Z,28.8850,-90.0250,1023.1,1111122 
LOOP,urn:ioos:station:wmo:lopl1:1,2018-12-10T08:48:00Z,28.8850,-90.0250,1023.1,1111122 
LOOP,urn:ioos:station:wmo:lopl1:1,2018-12-10T09:48:00Z,28.8850,-90.0250,1023.1,1111122 
LOOP,urn:ioos:station:wmo:lopl1:1,2018-12-10T10:48:00Z,28.8850,-90.0250,1023.1,1111122 
LOOP,urn:ioos:station:wmo:lopl1:1,2018-12-10T11:53:00Z,28.8850,-90.0250,1024.1,1111122 
LOOP,urn:ioos:station:wmo:lopl1:1,2018-12-10T12:53:00Z,28.8850,-90.0250,1025.1,1111122 
LOOP,urn:ioos:station:wmo:lopl1:1,2018-12-10T13:53:00Z,28.8850,-90.0250,1026.1,1111122 
LOOP,urn:ioos:station:wmo:lopl1:1,2018-12-10T14:53:00Z,28.8850,-90.0250,1026.1,1111122 
LOOP,urn:ioos:station:wmo:lopl1:1,2018-12-10T15:58:00Z,28.8850,-90.0250,1027.1,1111122 
LOOP,urn:ioos:station:wmo:lopl1:1,2018-12-10T16:58:00Z,28.8850,-90.0250,1026.1,1111122 
LOOP,urn:ioos:station:wmo:lopl1:1,2018-12-10T17:58:00Z,28.8850,-90.0250,1025.1,1111122 
LOOP,urn:ioos:station:wmo:lopl1:1,2018-12-10T18:58:00Z,28.8850,-90.0250,1025.1,11111222 
LOOP,urn:ioos:station:wmo:lopl1:1,2018-12-10T19:58:00Z,28.8850,-90.0250,1024.1,1111122 
LOOP,urn:ioos:station:wmo:lopl1:1,2018-12-10T20:58:00Z,28.8850,-90.0250,1024.1,1111122 
LOOP,urn:ioos:station:wmo:lopl1:1,2018-12-10T21:58:00Z,28.8850,-90.0250,1025.1,1111122 
LOOP,urn:ioos:station:wmo:lopl1:1,2018-12-10T22:58:00Z,28.8850,-90.0250,1025.1,1111122 
LOOP,urn:ioos:station:wmo:lopl1:1,2018-12-10T23:58:00Z,28.8850,-90.0250,1025.1,1111122 
LOOP,urn:ioos:station:wmo:lopl1:1,2018-12-11T00:58:00Z,28.8850,-90.0250,1026.1,1111122 
LOOP,urn:ioos:station:wmo:lopl1:1,2018-12-11T01:58:00Z,28.8850,-90.0250,1027.1,1111122 
LOOP,urn:ioos:station:wmo:lopl1:1,2018-12-11T02:58:00Z,28.8850,-90.0250,1027.1,1111122 
LOOP,urn:ioos:station:wmo:lopl1:1,2018-12-11T03:58:00Z,28.8850,-90.0250,1028.1,1111122 
LOOP,urn:ioos:station:wmo:lopl1:1,2018-12-11T04:58:00Z,28.8850,-90.0250,1028.1,1111122 
LOOP,urn:ioos:station:wmo:lopl1:1,2018-12-11T05:58:00Z,28.8850,-90.0250,1028.1,1111122 
LOOP,urn:ioos:station:wmo:lopl1:1,2018-12-11T06:58:00Z,28.8850,-90.0250,1028.1,1111122 
LOOP,urn:ioos:station:wmo:lopl1:1,2018-12-11T07:58:00Z,28.8850,-90.0250,1028.1,1111122 
LOOP,urn:ioos:station:wmo:lopl1:1,2018-12-11T09:03:00Z,28.8850,-90.0250,1028.1,1111122 
LOOP,urn:ioos:station:wmo:lopl1:1,2018-12-11T10:03:00Z,28.8850,-90.0250,1028.1,1111122 
LOOP,urn:ioos:station:wmo:lopl1:1,2018-12-11T11:03:00Z,28.8850,-90.0250,1029.1,1111122 
LOOP,urn:ioos:station:wmo:lopl1:1,2018-12-11T12:03:00Z,28.8850,-90.0250,1029.1,1111122 
LOOP,urn:ioos:station:wmo:lopl1:1,2018-12-11T13:03:00Z,28.8850,-90.0250,1030.1,1111122 
LOOP,urn:ioos:station:wmo:lopl1:1,2018-12-11T14:03:00Z,28.8850,-90.0250,1030.1,1111122 
LOOP,urn:ioos:station:wmo:lopl1:1,2018-12-11T15:03:00Z,28.8850,-90.0250,1031.1,1111122 
LOOP,urn:ioos:station:wmo:lopl1:1,2018-12-11T16:03:00Z,28.8850,-90.0250,1031.1,1111122 
LOOP,urn:ioos:station:wmo:lopl1:1,2018-12-11T17:03:00Z,28.8850,-90.0250,1031.1,1111122 
LOOP,urn:ioos:station:wmo:lopl1:1,2018-12-11T18:03:00Z,28.8850,-90.0250,1030.1,1111122 
LOOP,urn:ioos:station:wmo:lopl1:1,2018-12-11T19:08:00Z,28.8850,-90.0250,1029.1,1111122 
LOOP,urn:ioos:station:wmo:lopl1:1,2018-12-11T20:08:00Z,28.8850,-90.0250,1028.1,1111122 
LOOP,urn:ioos:station:wmo:lopl1:1,2018-12-11T21:08:00Z,28.8850,-90.0250,1028.1,11111222 
LOOP,urn:ioos:station:wmo:lopl1:1,2018-12-11T22:08:00Z,28.8850,-90.0250,1028.1,1111122 
LOOP,urn:ioos:station:wmo:lopl1:1,2018-12-11T23:08:00Z,28.8850,-90.0250,1028.1,1111122 
LOOP,urn:ioos:station:wmo:lopl1:1,2018-12-12T00:08:00Z,28.8850,-90.0250,1028.1,1111122 
LOOP,urn:ioos:station:wmo:lopl1:1,2018-12-12T01:08:00Z,28.8850,-90.0250,1027.1,1111122 
LOOP,urn:ioos:station:wmo:lopl1:1,2018-12-12T02:08:00Z,28.8850,-90.0250,1027.1,1111122 
LOOP,urn:ioos:station:wmo:lopl1:1,2018-12-12T03:08:00Z,28.8850,-90.0250,1027.1,1111122 
LOOP,urn:ioos:station:wmo:lopl1:1,2018-12-12T04:08:00Z,28.8850,-90.0250,1027.1,1111122 
LOOP,urn:ioos:station:wmo:lopl1:1,2018-12-12T05:13:00Z,28.8850,-90.0250,1026.1,1111122 
LOOP,urn:ioos:station:wmo:lopl1:1,2018-12-12T06:13:00Z,28.8850,-90.0250,1026.1,1111122 
LOOP,urn:ioos:station:wmo:lopl1:1,2018-12-12T07:13:00Z,28.8850,-90.0250,1025.1,1111122 
LOOP,urn:ioos:station:wmo:lopl1:1,2018-12-12T08:13:00Z,28.8850,-90.0250,1025.1,1111122 